www.pogodaiklimat.ru

Погода и климат >> Архив погоды >> Россия >> Оренбургская область >> Акбулак


ПОГОДА в Акбулаке

  • Прогноз погоды в Акбулаке
  • Монитор погоды в Акбулаке
  • Климат города

АРХИВ ПОГОДЫ в Акбулаке

Время (UTC), дата Ветер
(напр.,м/с)
 
Видим.   Явления Облачность Т
(С)
Тd
(С)
f
(%)
Тe
(С)
Тes
(С)
Комфортность P
(гПа)
Po
(гПа)
Тmin
(С)
Tmax
(С)
R
(мм)
R24
(мм)
S
(см)
21 12.09 З 2 20 км 3/0
[Ac As]
+15.5 +6.7 56 +16 +16 1020.5 1003.2
00 13.09 З 1 20 км 9/0
[Ac As]
+13.5 +6.8 64 +14 +14 1021.1 1003.6
03 13.09 З 2 20 км 9/5 600 м
[Sc Ac As]
+13.6 +6.3 61 +13 +13 1021.8 1004.3 +10.7
06 13.09 З 4 20 км 5/0
[Ac As]
+21.9 +5.9 35 +22 +25 комфорт 1021.4 1004.4
09 13.09 З 5-12
{12}
20 км 8/3 600 м
[Sc Ac As]
+21.6 +6.0 36 +22 +24 комфорт 1021.0 1004.0
12 13.09 СЗ 3 20 км ясно +26.9 +6.9 28 +26 +29 жарко 1019.9 1003.2
15 13.09 ЮЗ 1 20 км ясно +21.4 +6.8 39 +22 +22 комфорт 1020.3 1003.3 +27.4
18 13.09 штиль 0 20 км ясно +13.1 +8.2 72 +13 +13 1021.3 1003.8
21 13.09 штиль 0 20 км ясно +10.7 +6.5 75 +10 +10 1021.0 1003.4
00 14.09 ЮВ 3 20 км ясно +11.1 +5.4 68 +9 +9 1021.1 1003.5
03 14.09 ЮВ 1 20 км ясно +12.2 +5.3 63 +12 +13 1021.4 1003.8 +8.8
06 14.09 ЮВ 2 20 км ясно +22.5 +6.1 35 +23 +30 комфорт 1020.2 1003.3
09 14.09 ЮЗ 5
{10}
20 км ясно +27.8 -1.2 15 +25 +30 комфорт 1018.4 1001.7
12 14.09 ЮЗ 5
{11}
20 км 3/0
[Ci fib]
+28.6 -2.2 13 +26 +27 жарко 1016.8 1000.2
15 14.09 Ю 2
{10}
20 км 9/0
[Ac lent Ci fib]
+22.6 -0.9 21 +22 +22 комфорт 1015.6 998.7 +28.7
18 14.09 ЮВ 1 20 км ясно +15.5 +1.7 39 +16 +16 1016.4 999.1
21 14.09 ЮВ 3 20 км ясно +13.6 +1.5 44 +13 +13 1016.2 998.8
00 15.09 ЮВ 3 20 км ясно +11.7 +1.1 48 +10 +10 1015.8 998.3
03 15.09 В 1 20 км 3/3 600 м
[Sc]
+12.7 +1.3 46 +13 +13 1016.0 998.5 +11.0
06 15.09 ЮВ 2 20 км 1/0
[Ac trans]
+20.6 +3.7 33 +22 +28 комфорт 1016.2 999.2
09 15.09 Ю 1 20 км ясно +28.2 +1.4 18 +26 +37 жарко 1014.9 998.3
12 15.09 З 1 20 км ясно +29.0 +2.3 18 +27 +30 жарко 1014.2 997.7
15 15.09 ЮЗ 1 20 км ясно +20.3 +7.4 43 +22 +22 комфорт 1015.1 998.1 +29.6
18 15.09 штиль 0 20 км ясно +15.4 +9.0 66 +15 +15 1016.0 998.7
21 15.09 штиль 0 20 км 4/0
[Ci fib]
+13.3 +10.6 84 +13 +13 1016.5 999.1
00 16.09 ЮВ 1 20 км 3/0
[Ci fib]
+13.7 +12.6 93 +14 +14 1016.9 999.5
03 16.09 ЮВ 2 20 км ясно +14.0 +12.3 89 +13 +14 1017.8 1000.4 +13.0
06 16.09 Ю 1 20 км ясно +23.1 +14.4 58 +27 +34 душно 1017.6 1000.8
09 16.09 ЮЗ 1 20 км ясно +29.1 +11.0 33 +30 +40 жарко 1016.6 1000.2
12 16.09 З 2 20 км ясно +29.3 +8.6 27 +29 +32 жарко 1016.5 1000.0
15 16.09 СЗ 1 20 км ясно +20.4 +9.3 49 +23 +23 комфорт 1017.3 1000.3 +29.8
18 16.09 штиль 0 20 км ясно +15.4 +9.8 69 +15 +15 1018.5 1001.2
21 16.09 СВ 1 20 км ясно +11.8 +8.8 82 +12 +12 1019.2 1001.7
00 17.09 штиль 0 20 км ясно +10.1 +8.3 89 +9 +9 1019.8 1002.1
03 17.09 штиль 0 20 км 3/3 600 м
[Sc]
+10.9 +8.7 86 +10 +11 1020.4 1002.8 +9.2
06 17.09 З 1 20 км 3/0
[Ci fib]
+21.2 +10.0 49 +23 +29 комфорт 1020.5 1003.5
09 17.09 СЗ 3 20 км ясно +26.9 +8.3 31 +27 +34 жарко 1019.7 1003.1
12 17.09 С 3 20 км 3/0
[Ci fib]
+26.3 +2.6 22 +25 +27 комфорт 1019.0 1002.3
15 17.09 С 1 20 км 3/3 600 м
[Sc diur, vesp]
+20.7 +4.2 34 +22 +22 комфорт 1019.8 1002.8 +27.3
18 17.09 С 1 20 км ясно +12.6 +4.9 59 +13 +13 1021.1 1003.5
21 17.09 штиль 0 20 км ясно +9.3 +5.7 78 +9 +9 1021.5 1003.7
00 18.09 С 1 20 км ясно +8.3 +5.2 81 +8 +8 1022.6 1004.8
03 18.09 штиль 0 20 км 9/0
[Ci fib]
+8.9 +5.6 80 +8 +8 1023.2 1005.4 +6.8
06 18.09 З 1 20 км 3/0
[Ci fib]
+19.9 +6.4 41 +22 +28 комфорт 1023.0 1005.9
09 18.09 З 1 20 км ясно +23.8 +6.9 34 +24 +34 комфорт 1022.0 1005.1
12 18.09 З 2 20 км ясно +25.0 +6.3 30 +25 +28 комфорт 1021.0 1004.2
15 18.09 СВ 1 20 км ясно +18.1 +5.3 43 +19 +19 1022.0 1004.8 +25.0
18 18.09 В 1 20 км ясно +12.3 +5.4 63 +12 +12 1022.9 1005.3
21 18.09 ЮВ 1 20 км ясно +11.6 +4.9 63 +12 +12 1023.3 1005.7
00 19.09 ЮВ 1 20 км ясно +10.2 +4.9 70 +10 +10 1023.9 1006.2
03 19.09 ЮВ 3 20 км ясно +12.6 +4.8 59 +11 +12 1024.3 1006.7 +10.1
06 19.09 ЮВ 1 20 км 5/0
[Ci fib]
+22.1 +7.2 38 +23 +29 комфорт 1024.2 1007.2
09 19.09 Ю 2 20 км 3/0
[Ci fib]
+28.6 +6.1 24 +27 +35 жарко 1022.8 1006.2
12 19.09 Ю 2 20 км 3/0
[Ci fib]
+29.5 +5.4 22 +28 +31 жарко 1021.6 1005.1
15 19.09 штиль 0 20 км 1/0
[Ci fib]
+21.4 +7.7 41 +22 +22 комфорт 1021.8 1004.8 +29.7
18 19.09 ЮВ 1 20 км ясно +17.6 +6.1 47 +19 +19 1022.4 1005.1

 

Местоположение метеостанции Акбулак (Оренбургская область, Россия): широта 51.02 долгота 55.63 высота над уровнем моря 144 м.

В архиве по умолчанию представлена погода в Акбулаке за последнюю неделю. Архивные данные за месяц целиком и за предыдущие месяцы, начиная с января 2011 года, Вы можете получить, выбрав интересующий диапазон дат из раскрывающегося списка и нажав кнопку "Ввод!".

Внимание! Время в таблицах - всемирное. Для получения местного времени необходимо прибавить поправку, которая в Акбулаке равна 5 ч.

Смотрите также архив погоды в соседних городах и на ближайших метеорологических станциях:

Погода в Соль-Илецк (Оренбургская область, Россия) (45 км)
Погода в Мартуке (Актюбинская область, Казахстан) (70 км)
Погода в Беляевке (Оренбургская область, Россия) (71 км)
Погода в Оренбурге (Оренбургская область, Россия) (82 км)
Погода в Новоалексеевке (Костанайская область, Казахстан) (99 км)
Погода в Чингирлау (Западно-Казахстанская область, Казахстан) (107 км)
Погода в Родниковке (Актюбинская область, Казахстан) (116 км)
Погода в Каралаатсае (Актюбинская область, Казахстан) (127 км)
Погода в Кувандыке (Оренбургская область, Россия) (131 км)
Погода в Актобе (Актюбинская область, Казахстан) (135 км)

Пояснения к столбцам:

Ветер - указаны скорость ветра в м/с - средняя за 10 мин, порывы в срок и между сроками (в фигурных скобках) и направление, откуда дует ветер: С - северный, СВ - северо-восточный, В - восточный, ЮВ - юго-восточный, Ю - южный, ЮЗ - юго-западный, З - западный, СЗ - северо-западный.
Видимость - горизонтальная дальность видимости в метрах или километрах. При видимости от 1 до 10 км при отсутствии осадков обычно наблюдается дымка, при ухудшении видимости до 1 км и менее - туман. В сухую погоду видимость может ухудшаться дымом, пылью или мглою.
Явления - указаны атмосферные явления, наблюдавшиеся в срок или в последний час перед сроком; фигурными скобками обозначены явления, наблюдавшиеся между сроками (за 1-3 часа до срока); квадратными скобками обозначены град или гололедные отложения с указанием их диаметра в мм.
Облачность - указаны через наклонную черту общая и нижняя облачность в баллах и высота нижней границы облаков в метрах; квадратными скобками обозначены формы облаков: Ci - перистые, Cs - перисто-слоистые, Cc - перисто-кучевые, Ac - высококучевые, As - высокослоистые, Sc - слоисто-кучевые, Ns - слоисто-дождевые, Cu - кучевые, Cb - кучево-дождевые. Подробнее классификацию облаков см. в Атласе облаков (PDF).
T - Температура воздуха - температура, измеренная на высоте 2 м над землей.
Td - Температура точки росы - температура, при понижении до которой содержащийся в воздухе водяной пар достигнет насыщения.
f - Относительная влажность воздуха - влажноcть воздуха, измеренная на высоте 2 м над землей.
Te - Эффективная температура - температура, которую ощущает одетый по сезону человек в тени. Характеристика душности погоды. При расчете учитывается влияние влажности воздуха и скорости ветра на теплоощущения человека.
Tes - Эффективная температура на солнце - температура, которую ощущает человек, с поправкой на солнечный нагрев. Характеристика знойности погоды. Зависит от высоты солнца над горизонтом, облачности и скорости ветра. Ночью, в пасмурную погоду, а также при ветре 12 м/с и более поправка равна нулю.
P - Атмосферное давление - приведенное к уровню моря атмосферное давление.
Po - Атмосферное давление - измеренное на уровне метеостанции атмосферное давление.
Tmin - Минимальная температура - минимум температуры воздуха на высоте 2 м над землей.
Tmax - Максимальная температура - максимум температуры воздуха на высоте 2 м над землей.
R - Количество осадков - Количество выпавших осадков за период времени, мм. При наведении курсора мыши на число - период времени, за который выпало указанное количество осадков.
R24 - Количество осадков - Количество выпавших осадков за 24 часа, мм.
S - Снежный покров - Высота снежного покрова, см. При наведении курсора мыши на число - состояние снежного покрова и степень покрытия местности в баллах.